Timeline UpdatesTrip UpdatesNews PostsPvt PostsTravel TipsAdmin PostsConv PostsFollowed PostsChat RequestsBlog PostsPNR Posts

Disclaimer
Search
 
 
Sat Apr 19, 2014 04:52:15 ISTHomeTrainsΣChainsAtlasPNRForumGalleryNewsFAQTripsMembersLoginFeedback
No Recent News for this Train
Other Trains in the News **new
Latest...
Attached to 59385 Panchvalley Fast Passenger at Amla to run uptill Chhindwara RESCHEDULED to leave at 20.00 on 26 August 2013
Mon Aug 26, 2013 (01:20PM)
⇐ Return Journey: Train# 59386-Slip

18238-Slip/Chhattisgarh Express Slip

Jul 12 2013 (12:57PM)
Change Departure Station:
Change Arrival Station:
Post a Train Travel TipPost a Train Travel Tip **new
Post a Comment/Question/Picture/VideoPost a Comment/Question/Picture/Video
Pantry/Catering
✕ NO Pantry Car
✕ NO Catering
RSA - Rake Sharing
.
Rake/Coach Composition
SP1(Itz attached at the end of the train)
Loco
ASR - NZM > TKD WDP4B/4D NZM-AMLA> AJNI WAP7 AMLA-CWA> RTM WDM3A
News    PNR    Forum    Time-Table    Availability    Fare Chart    Map    Arr/Dep History    Trips    Gallery    ΣChains    X/O    Timeline    
Travel Time: 30h 10m    57 halts    Distance: 1296 km    Avg Speed: 42 km/hr
Type: Mail/Express
Zone: CR/Central
Departs @ 22:20 (Avg 9m late)
Platform# 1
SMTWTFS
Ambala Cantt. Junction/UMB 
Arrives @ 04:30 +2 nights
Platform# 3
SMTWTFS
Chhindwara Junction/CWA 

57 halts. 182 intermediate Stations between Ambala Cantt. Junction and Chhindwara Junction

Show ALL intermediate Stations  Show Old Time-Table

#CodeStation NameX/OArrivesAvgDepartsAvgHaltPFDay#KmSpeedElevZoneAddress
1ASRAmritsar Junction (5)  -16:15+321-249.677233mNRAmritsar 143002, Punjab
2JNLJandiala (2)  16:30+1116:32+112m21-230.480238mNRJandiala, Punjab
3BEASBeas Junction (2)  16:50+1416:52+142m21-206.561238mNRBeas, Punjab
4KREKartarpur (2)X  17:13+1317:15+132m11-185.173236mNRKartarpur, Punjab
5JUCJalandhar City Junction (5)X  17:27+1717:35+198m21-170.422239mNRJalandhar 144001, Punjab
6JRCJalandhar Cantt. Junction (3)X  17:48+1517:50+242m21-165.665239mNRNear Rama Mandi, Punjab
7PGWPhagwara Junction (3)X  18:05+2618:07+262m11-149.342245mNRPhagwara, Punjab
8GRYGoraya (2)XO  18:21+2318:23+282m11-139.433240mNRGoraya, Punjab
9PHRPhillaur Junction (3)  18:46+1718:48+172m11-126.746246mNRPhillaur, Punjab
10LDHLudhiana Junction (7)X  19:05+1819:15+1810m11-113.622246mNRLudhiana 141001, Punjab
11SNLSanehwal (3)X  19:56+119:58+42m21-98.555260mNRLudhiana, Punjab
12DOADoraha (2)X  20:06+1020:08+102m21-91.257261mNRDoraha, Punjab
13CHAChawapail (2)  20:18+1020:20+102m21-81.766267mNRLudhiana, Punjab
14KNNKhanna (3)  20:30+1120:32+112m21-70.854269mNRNH 1, Punjab
15GVGMandi Gobindgarh (2)  20:41+1220:43+122m11-62.749268mNRMandi Gobindgarh, Punjab
16SIRSirhind Junction (3)  20:55+1220:57+122m21-52.965271mNRSirhind, Punjab
17RPJRajpura Junction (3)X  21:20+1321:22+142m21-28.156272mNRNH-1, Punjab
18UBCAmbala City (3)X  21:44+1021:46+112m11-7.621273mNRNH-1, Haryana
19UMB»Ambala Cantt. Junction (7)»X  22:08+1022:20+912m110.068278mNRAmbala 133001, Haryana
20RAABarara (2)  22:42+1222:44+122m1124.871279mNRBarara, Haryana
21JUDWJagadhri Workshop (2)  23:02+1323:04+132m1146.043280mNRRailway Workshop Road, Haryana
22JUDYamunanagar-Jagadhri (3)  23:11+1323:13+142m2151.035275mNRYamunanagar, Haryana
23SRESaharanpur Junction (6)X  00:05+100:15+210m--281.268276mNRSaharanpur, Uttar Pradesh
24DBDDeoband (2)  00:45+1300:47+142m--2115.376258mNRSaharanpur, Uttar Pradesh
25MOZMuzaffarnagar (3)  01:06+1601:08+172m--2139.451247mNRMuzaffarNagar, Uttar Pradesh
26KATKhatauli (2)X  01:34+1201:36+182m--2161.554239mNRKhatauli, Uttar Pradesh
27DRLADaurala (1)  01:56+1701:58+172m12179.561232mNRMeerut, Uttar Pradesh
28MUTMeerut Cantt. (2)  02:09+1902:11+202m--2190.629230mNRMeerut, Uttar Pradesh
29MTCMeerut City Junction (6)  02:20+1802:25+165m22195.083229mNRMeerut, Uttar Pradesh
30MDNRModinagar (2)  02:39+1902:41+192m--2214.478221mNRGhaziabad, Uttar Pradesh
31GUHGuldhar (2)  02:55+2002:57+202m--2232.519224mNRGhaziabad, Uttar Pradesh
32GZBGhaziabad Junction (6)  03:28+803:30+92m32242.250217mNRGhaziabad, Uttar Pradesh
33SBBSahibabad Junction (5)  03:38+1503:40+142m--2248.927209mNRGhaziabad, Uttar Pradesh
34NZMDelhi Hazrat Nizamuddin (7)X  04:15+804:40+925m22264.960209mNRNizamuddin East/Sarai KaleKhan Bus Terminal, Delhi NCT
35BVHBallabgarh (5)X  05:09+805:11+92m42293.842203mNRFaridabad, Haryana
36PWLPalwal (8)X  05:41+105:43+52m42315.085200mNRPalwal, Haryana
37KSVKosi Kalan (3)X  06:13+906:15+102m22357.456189mNCRKosi Kalan, Uttar Pradesh
38CHJChata (4)X  06:26+1106:28+112m--2367.769185mNCRChhata, Uttar Pradesh
39MTJMathura Junction (10)X  06:55+1407:00+135m12398.953179mNCRMathura, Uttar Pradesh
40RKMRaja Ki Mandi (4)XO  07:56+1807:58+242m22448.68170mNCRAgra, Uttar Pradesh
41AGCAgra Cantt. (6)X  08:30+608:40+610m12452.679174mNCRAgra, Uttar Pradesh
42DHODholpur Junction (3)X  09:20+1409:22+312m32505.262177mNCRDholpur, Rajasthan
43MRAMorena (3)X  09:48+3209:50+382m12532.083176mNCRMorena, Madhya Pradesh
44BAOBanmorXO  10:04+4110:06+452m--2551.330189mNCRGwalior, Madhya Pradesh
45GWLGwalior Junction (4)XO  10:45+3910:50+405m12570.667214mNCRGwalior, Madhya Pradesh
46DBADabra (3)  11:28+4411:30+442m--2612.963204mNCRDabra(District-Gwalior), Madhya Pradesh
47SORSonagirO  11:48+4511:50+492m--2631.730211mNCRDatia, Madhya Pradesh
48DAADatia (2)X  12:13+4212:15+432m--2643.227264mNCRDatia, Madhya Pradesh
49JHSJhansi Junction (7)  13:10+2213:20+2710m--2668.367259mNCRJhansi, Uttar Pradesh
50BABBabina (3)X  13:43+3613:45+362m12693.852285mNCRBabina, Uttar Pradesh
51BZYBasai (3)X  13:59+3614:01+382m12705.955287mNCR07522289600(Gate ManMob. - 9452701575), Madhya Pradesh
52TBTTalbahat (4)X  14:15+3814:17+412m22718.783314mNCRKhaniyadhana Station Rd, Madhya Pradesh
53LARLalitpur (3)  14:46+4414:48+462m12758.685373mNCRLalitpur, Uttar Pradesh
54DUADhaura (3)XO  15:08+4815:10+492m--2786.928407mNCRDhaura Tanda, Madhya Pradesh
55BINABina Junction (5)X  16:25+2116:30+235m22821.569414mWCRJn Pt - KATNI/GUNA/ BPL/JHS, Madhya Pradesh
56MABAMandi Bamora (3)XO  16:45+2816:47+292m22838.778413mWCRState Highway 14, Madhya Pradesh
57BAQGanj Basoda (4)  17:09+3017:11+312m22867.384416mWCRVidisha, Madhya Pradesh
58BHSVidisha (3)X  17:39+3617:41+352m22906.654432mWCRVidisha, Madhya Pradesh
59BPLBhopal Junction (6)X  18:40+3018:45+325m12960.138497mWCRBhopal, Madhya Pradesh
60HBJBhopal HabibGanj (5)  18:55+3518:57+362m--2966.377496mWCRHabibGanj, Madhya Pradesh
61ODGObaidulla GanjX  19:20+4119:22+442m--2996.033450mWCRObaidullaganj Raisen Dist., Madhya Pradesh
62HBDHoshangabad (4)XO  20:30+3220:32+332m--21033.729308mWCRHoshangabad, Madhya Pradesh
63ETItarsi Junction (7)  21:10+3021:15+325m--21051.868329mWCRItarsi 461111, Madhya Pradesh
64GDYAGhoradongri (3)X  22:17+3822:19+402m--21122.249410mCRBetul, Madhya Pradesh
65BZUBetul (3)  23:03+3823:05+382m--21158.146644mCRBetul, Madhya Pradesh
66AMLAAmla Junction (5)23:35+3101:10+495m--21181.039733mCRAmla Distt. Betul, Madhya Pradesh
67JMVJambara (1)  01:31-01:33-2m131194.650706mCRAmla, Madhya Pradesh
68BCRDBarchi Road (1)O  01:41-01:43-2m131201.265713mCRState Highway 26, Madhya Pradesh
69BXYBordhal (1)O  01:49-01:51-2m131207.846710mCRAmla, Madhya Pradesh
70NVGNavegaon (1)  02:12-02:14-2m131223.756794mCRNayagaon, Madhya Pradesh
71HRGHirdagarh (2)O  02:30-02:32-2m--31238.647721mCRDongar Parasia, Madhya Pradesh
72JNOJunnor Deo (2)O  02:45-02:47-2m--31248.636762mCRDongar Parasia, Madhya Pradesh
73IKRIklehra (1)  03:08-03:10-2m131261.242771mCRDongar Parasia, Madhya Pradesh
74PUXParasia (2)O  03:19-03:21-2m--31267.5150775mCRDongar Parasia, Madhya Pradesh
75KUXKhirsadoh Junction (2)  03:24-03:26-2m--31275.021769mCRChhindwara, Madhya Pradesh
76GNWGangiwara (1)  03:48-03:50-2m131282.620714mCRChhindwara, Madhya Pradesh
77CWA•Chhindwara Junction (3)•  04:30--331295.9-675mSECRNH 69A Seoni Road, Madhya Pradesh
Scroll to Top
Scroll to Bottom